Fargo, ND

5:05 PM CST on November 11, 2019 (GMT -0600)
Hector International

Weather History for KFAR - September, 2019

Change the Weather History Date:

Monday, September 23, 2019

  Actual Average Record
Temperature  
Mean Temperature 62 °F 56 °F  
Max Temperature 75 °F 67 °F 93 °F (2007)
Min Temperature 48 °F 44 °F 23 °F (1887)
Degree Days  
Heating Degree Days 3 10  
Month to date heating degree days 88 140  
Since 1 July heating degree days 133 190  
Cooling Degree Days 0 1  
Month to date cooling degree days 56 41  
Year to date cooling degree days 527 546  
Growing Degree Days 12 (Base 50)    
Moisture  
Dew Point 49 °F    
Average Humidity 66    
Maximum Humidity 93    
Minimum Humidity 33    
Precipitation  
Precipitation 0.00 in 0.07 in 1.60 in (2010)
Month to date precipitation 3.24 2.04  
Year to date precipitation 23.47 18.07  
Snow  
Snow 0.00 in 0.00 in T in (2002)
Month to date snowfall 0.0 0.0  
Since 1 July snowfall 0.0 0.0  
Since 1 September snowfall 0.0 0.0  
Snow Depth 0.00 in    
Sea Level Pressure  
Sea Level Pressure 29.87 in    
Wind  
Wind Speed 7 mph ()    
Max Wind Speed 16 mph    
Max Gust Speed 21 mph    
Visibility 10.0 miles    
Events      
T = Trace of Precipitation, MM = Missing Value Source: Averaged Metar Reports

Daily Weather History Graph

Daily Weather History Graph

Search for Another Location

Airport or City:

Astronomy

Sep. 23, 2019 Rise Set
Actual Time 7:15 AM CDT 7:23 PM CDT
Civil Twilight 6:44 AM CDT 7:53 PM CDT
Nautical Twilight 6:09 AM CDT 8:29 PM CDT
Astronomical Twilight 5:32 AM CDT 9:05 PM CDT
Moon 12:35 AM CDT (9/23) 4:41 PM CDT (9/23)
Length of Visible Light 13h 08m
Length of Day
12h 08m
Waning Crescent, 33% of the Moon is Illuminated
Sep 23
Waning Crescent
Sep 28
New
Oct 5
First Quarter
Oct 13
Full
Oct 21
Last Quarter

Hourly Weather History & Observations

Time (CDT) Temp. Dew Point Humidity Pressure Visibility Wind Dir Wind Speed Gust Speed Precip Events Conditions
12:53 AM 54.0 °F 48.0 °F 80% 29.86 in 10.0 mi SSW 5.8 mph - N/A   Clear
1:53 AM 54.0 °F 50.0 °F 86% 29.87 in 10.0 mi SW 6.9 mph - N/A   Clear
2:53 AM 53.1 °F 50.0 °F 89% 29.88 in 10.0 mi WSW 8.1 mph - N/A   Clear
3:53 AM 51.1 °F 48.0 °F 89% 29.88 in 10.0 mi West 3.5 mph - N/A   Clear
4:53 AM 50.0 °F 46.9 °F 89% 29.89 in 10.0 mi SSW 6.9 mph - N/A   Clear
5:53 AM 50.0 °F 46.9 °F 89% 29.90 in 10.0 mi SSW 4.6 mph - N/A   Clear
6:53 AM 48.0 °F 46.0 °F 93% 29.91 in 10.0 mi South 6.9 mph - N/A   Clear
7:53 AM 51.1 °F 48.0 °F 89% 29.92 in 10.0 mi Calm Calm - N/A   Clear
8:53 AM 54.0 °F 50.0 °F 86% 29.93 in 10.0 mi South 5.8 mph - N/A   Clear
9:53 AM 59.0 °F 51.1 °F 75% 29.93 in 10.0 mi SW 8.1 mph - N/A   Clear
10:53 AM 64.0 °F 52.0 °F 65% 29.93 in 10.0 mi SSW 8.1 mph - N/A   Clear
11:53 AM 69.1 °F 53.1 °F 57% 29.92 in 10.0 mi SSW 10.4 mph - N/A   Clear
12:53 PM 73.0 °F 51.1 °F 46% 29.91 in 10.0 mi SW 13.8 mph - N/A   Clear
1:53 PM 75.0 °F 48.9 °F 40% 29.89 in 10.0 mi SSW 11.5 mph - N/A   Clear
2:53 PM 75.9 °F 46.9 °F 36% 29.88 in 10.0 mi SSW 9.2 mph - N/A   Clear
3:53 PM 75.9 °F 46.0 °F 35% 29.87 in 10.0 mi SW 12.7 mph - N/A   Clear
4:53 PM 75.0 °F 45.0 °F 34% 29.86 in 10.0 mi SSW 11.5 mph - N/A   Clear
5:53 PM 73.9 °F 46.0 °F 37% 29.85 in 10.0 mi SSW 13.8 mph - N/A   Clear
6:53 PM 66.9 °F 50.0 °F 54% 29.84 in 10.0 mi South 9.2 mph - N/A   Clear
7:53 PM 66.0 °F 48.9 °F 54% 29.83 in 10.0 mi South 9.2 mph - N/A   Clear
8:53 PM 64.9 °F 48.9 °F 56% 29.83 in 10.0 mi South 9.2 mph - N/A   Clear
9:53 PM 64.9 °F 50.0 °F 58% 29.81 in 10.0 mi South 11.5 mph - N/A   Clear
10:53 PM 63.0 °F 51.1 °F 65% 29.80 in 10.0 mi South 11.5 mph - N/A   Clear
11:53 PM 61.0 °F 51.1 °F 70% 29.78 in 10.0 mi South 11.5 mph - N/A   Clear